| time (UTC) | temp F | wind direction | speed knots | gust knots | rain 1hr in | rain 24hr in | rain mn in | humidity % | barometer mb |
| 20260508012824 | 59 | 330 | 1.7 | 1.7 | 0.00 | 0.00 | 0.00 | 77 | 1014.9 |
| 20260508012311 | 59 | 306 | 1.7 | 1.7 | 0.00 | 0.00 | 0.00 | 81 | 1015.0 |
| 20260508011812 | 59 | 306 | 1.7 | 1.7 | 0.00 | 0.00 | 0.00 | 81 | 1015.1 |
| 20260508011300 | 59 | 306 | 0.0 | 0.0 | 0.00 | 0.00 | 0.00 | 81 | 1015.2 |
| 20260508010747 | 59 | 306 | 1.7 | 1.7 | 0.00 | 0.00 | 0.00 | 79 | 1015.2 |
| 20260508010247 | 59 | 306 | 1.7 | 1.7 | 0.00 | 0.00 | 0.00 | 79 | 1015.1 |
| 20260508005734 | 58 | 306 | 0.0 | 0.0 | 0.00 | 0.00 | 0.00 | 80 | 1015.1 |
| 20260508005234 | 58 | 306 | 1.7 | 1.7 | 0.00 | 0.00 | 0.00 | 81 | 1015.1 |
| 20260508004721 | 58 | 306 | 1.7 | 1.7 | 0.00 | 0.00 | 0.00 | 81 | 1015.1 |
| 20260508004222 | 58 | 306 | 0.0 | 0.0 | 0.00 | 0.00 | 0.00 | 82 | 1015.2 |
| 20260508003708 | 58 | 306 | 1.7 | 1.7 | 0.00 | 0.00 | 0.00 | 82 | 1015.2 |
| 20260508003210 | 58 | 306 | 1.7 | 1.7 | 0.00 | 0.00 | 0.00 | 82 | 1015.4 |
| 20260508002657 | 58 | 306 | 1.7 | 1.7 | 0.00 | 0.00 | 0.00 | 81 | 1015.5 |
| 20260508002157 | 58 | 306 | 1.7 | 1.7 | 0.00 | 0.00 | 0.00 | 81 | 1015.5 |
| 20260508001656 | 58 | 306 | 1.7 | 1.7 | 0.00 | 0.00 | 0.00 | 81 | 1015.5 |
| 20260508001156 | 58 | 306 | 1.7 | 1.7 | 0.00 | 0.00 | 0.00 | 81 | 1015.6 |
| 20260508000657 | 58 | 306 | 1.7 | 1.7 | 0.00 | 0.00 | 0.00 | 83 | 1015.7 |
| 20260508000144 | 58 | 306 | 1.7 | 1.7 | 0.00 | 0.00 | 0.00 | 81 | 1015.8 |
| 20260507235644 | 58 | 306 | 1.7 | 1.7 | 0.00 | 0.00 | 0.00 | 81 | 1015.8 |
| 20260507235211 | 58 | 306 | 2.6 | 2.6 | 0.00 | 0.00 | 0.00 | 82 | 1015.8 |
| 20260507234711 | 58 | 306 | 1.7 | 1.7 | 0.00 | 0.00 | 0.00 | 81 | 1015.9 |
| 20260507234159 | 59 | 324 | 0.0 | 0.0 | 0.00 | 0.00 | 0.00 | 81 | 1015.9 |
| 20260507233658 | 58 | 330 | 1.7 | 1.7 | 0.00 | 0.00 | 0.00 | 80 | 1015.8 |
| 20260507233145 | 58 | 312 | 1.7 | 1.7 | 0.00 | 0.00 | 0.00 | 83 | 1015.9 |
| 20260507232633 | 58 | 312 | 1.7 | 1.7 | 0.00 | 0.00 | 0.00 | 82 | 1016.1 |
| 20260507232134 | 58 | 312 | 1.7 | 1.7 | 0.00 | 0.00 | 0.00 | 82 | 1016.2 |
| 20260507231621 | 58 | 312 | 1.7 | 1.7 | 0.00 | 0.00 | 0.00 | 82 | 1016.3 |
| 20260507231120 | 58 | 312 | 1.7 | 1.7 | 0.00 | 0.00 | 0.00 | 83 | 1016.2 |
| 20260507230529 | 58 | 312 | 1.7 | 1.7 | 0.00 | 0.00 | 0.00 | 82 | 1016.2 |
| 20260507230029 | 58 | 312 | 1.7 | 1.7 | 0.00 | 0.00 | 0.00 | 82 | 1016.2 |
| 20260507225516 | 59 | 312 | 1.7 | 1.7 | 0.00 | 0.00 | 0.00 | 81 | 1016.3 |
| 20260507225019 | 58 | 318 | 1.7 | 1.7 | 0.00 | 0.00 | 0.00 | 82 | 1016.3 |
| 20260507224505 | 59 | 314 | 1.7 | 1.7 | 0.00 | 0.00 | 0.00 | 81 | 1016.4 |
| 20260507223952 | 58 | 318 | 1.7 | 1.7 | 0.00 | 0.00 | 0.00 | 81 | 1016.5 |
| 20260507223452 | 59 | 306 | 2.6 | 2.6 | 0.00 | 0.00 | 0.00 | 82 | 1016.5 |
| 20260507222939 | 59 | 306 | 1.7 | 1.7 | 0.00 | 0.00 | 0.00 | 80 | 1016.4 |
| 20260507222439 | 59 | 319 | 1.7 | 1.7 | 0.00 | 0.00 | 0.00 | 81 | 1016.4 |
| 20260507221926 | 58 | 312 | 2.6 | 2.6 | 0.00 | 0.00 | 0.00 | 81 | 1016.5 |
| 20260507221427 | 59 | 312 | 1.7 | 1.7 | 0.00 | 0.00 | 0.00 | 80 | 1016.4 |
| 20260507220914 | 59 | 318 | 1.7 | 1.7 | 0.00 | 0.00 | 0.00 | 80 | 1016.4 |
| 20260507220418 | 60 | 318 | 1.7 | 1.7 | 0.00 | 0.00 | 0.00 | 79 | 1016.5 |
| 20260507215903 | 60 | 318 | 0.0 | 0.0 | 0.00 | 0.00 | 0.00 | 79 | 1016.4 |
| 20260507215352 | 60 | 318 | 1.7 | 1.7 | 0.00 | 0.00 | 0.00 | 79 | 1016.4 |
| 20260507214849 | 60 | 318 | 1.7 | 1.7 | 0.00 | 0.00 | 0.00 | 78 | 1016.4 |
| 20260507214337 | 60 | 342 | 1.7 | 1.7 | 0.00 | 0.00 | 0.00 | 78 | 1016.5 |
| 20260507213837 | 61 | 11 | 1.7 | 1.7 | 0.00 | 0.00 | 0.00 | 76 | 1016.7 |
| 20260507213325 | 61 | 26 | 1.7 | 1.7 | 0.00 | 0.00 | 0.00 | 75 | 1016.7 |
| 20260507212826 | 62 | 60 | 0.0 | 0.0 | 0.00 | 0.00 | 0.00 | 74 | 1016.7 |
| 20260507212313 | 61 | 14 | 0.0 | 0.0 | 0.00 | 0.00 | 0.00 | 75 | 1016.7 |
| 20260507211800 | 62 | 318 | 1.7 | 1.7 | 0.00 | 0.00 | 0.00 | 75 | 1016.7 |
| 20260507211301 | 62 | 330 | 1.7 | 1.7 | 0.00 | 0.00 | 0.00 | 75 | 1016.7 |
| 20260507210749 | 62 | 352 | 1.7 | 1.7 | 0.00 | 0.00 | 0.00 | 74 | 1016.8 |
| 20260507210254 | 62 | 348 | 1.7 | 1.7 | 0.00 | 0.00 | 0.00 | 74 | 1016.8 |
| 20260507205739 | 62 | 330 | 1.7 | 1.7 | 0.00 | 0.00 | 0.00 | 74 | 1016.9 |
| 20260507205236 | 61 | 319 | 1.7 | 1.7 | 0.00 | 0.00 | 0.00 | 74 | 1016.8 |
| 20260507204725 | 61 | 318 | 0.0 | 0.0 | 0.00 | 0.00 | 0.00 | 75 | 1016.8 |
| 20260507204212 | 61 | 300 | 1.7 | 1.7 | 0.00 | 0.00 | 0.00 | 75 | 1016.9 |
| 20260507203712 | 61 | 312 | 1.7 | 1.7 | 0.00 | 0.00 | 0.00 | 75 | 1016.8 |
| 20260507203201 | 62 | 330 | 1.7 | 1.7 | 0.00 | 0.00 | 0.00 | 74 | 1016.8 |
| 20260507202703 | 62 | 330 | 0.0 | 0.0 | 0.00 | 0.00 | 0.00 | 75 | 1016.9 |
| 20260507202147 | 62 | 330 | 1.7 | 1.7 | 0.00 | 0.00 | 0.00 | 73 | 1016.9 |
| 20260507201652 | 62 | 335 | 1.7 | 1.7 | 0.00 | 0.00 | 0.00 | 73 | 1016.8 |
| 20260507201136 | 62 | 318 | 1.7 | 1.7 | 0.00 | 0.00 | 0.00 | 74 | 1016.8 |
| 20260507200624 | 62 | 324 | 1.7 | 1.7 | 0.00 | 0.00 | 0.00 | 73 | 1016.8 |
| 20260507200128 | 62 | 336 | 1.7 | 1.7 | 0.00 | 0.00 | 0.00 | 73 | 1016.9 |
| 20260507195609 | 62 | 348 | 1.7 | 1.7 | 0.00 | 0.00 | 0.00 | 72 | 1016.9 |
| 20260507195107 | 62 | 324 | 1.7 | 1.7 | 0.00 | 0.00 | 0.00 | 73 | 1016.9 |
| 20260507194557 | 62 | 330 | 1.7 | 1.7 | 0.00 | 0.00 | 0.00 | 72 | 1016.8 |
| 20260507194107 | 62 | 346 | 3.5 | 4.3 | 0.00 | 0.00 | 0.00 | 73 | 1016.9 |
| 20260507193601 | 62 | 318 | 3.5 | 3.5 | 0.00 | 0.00 | 0.00 | 73 | 1016.9 |
| 20260507193101 | 62 | 318 | 1.7 | 1.7 | 0.00 | 0.00 | 0.00 | 73 | 1016.9 |
| 20260507192541 | 62 | 318 | 1.7 | 1.7 | 0.00 | 0.00 | 0.00 | 73 | 1016.8 |
| 20260507192020 | 62 | 318 | 1.7 | 1.7 | 0.00 | 0.00 | 0.00 | 73 | 1016.8 |
| 20260507191526 | 62 | 318 | 1.7 | 1.7 | 0.00 | 0.00 | 0.00 | 73 | 1016.8 |
| 20260507191007 | 62 | 318 | 2.6 | 2.6 | 0.00 | 0.00 | 0.00 | 73 | 1016.7 |
| 20260507190515 | 62 | 318 | 1.7 | 1.7 | 0.00 | 0.00 | 0.00 | 72 | 1016.7 |
| 20260507185958 | 62 | 318 | 1.7 | 1.7 | 0.00 | 0.00 | 0.00 | 73 | 1016.7 |
| 20260507185453 | 63 | 325 | 3.5 | 3.5 | 0.00 | 0.00 | 0.00 | 72 | 1016.6 |
| 20260507184945 | 63 | 318 | 1.7 | 1.7 | 0.00 | 0.00 | 0.00 | 72 | 1016.6 |
| 20260507184432 | 63 | 318 | 0.0 | 0.0 | 0.00 | 0.00 | 0.00 | 72 | 1016.5 |
| 20260507183932 | 63 | 330 | 0.0 | 0.0 | 0.00 | 0.00 | 0.00 | 72 | 1016.4 |
| 20260507183418 | 63 | 346 | 0.0 | 0.0 | 0.00 | 0.00 | 0.00 | 72 | 1016.3 |
| 20260507182922 | 63 | 336 | 1.7 | 1.7 | 0.00 | 0.00 | 0.00 | 72 | 1016.4 |
| 20260507182411 | 63 | 312 | 1.7 | 1.7 | 0.00 | 0.00 | 0.00 | 73 | 1016.4 |
| 20260507181902 | 63 | 342 | 1.7 | 1.7 | 0.00 | 0.00 | 0.00 | 72 | 1016.4 |
| 20260507181351 | 63 | 12 | 1.7 | 1.7 | 0.00 | 0.00 | 0.00 | 72 | 1016.4 |
| 20260507180841 | 63 | 19 | 1.7 | 1.7 | 0.00 | 0.00 | 0.00 | 72 | 1016.4 |
| 20260507180341 | 64 | 27 | 1.7 | 1.7 | 0.00 | 0.00 | 0.00 | 71 | 1016.3 |
| 20260507175826 | 64 | 33 | 1.7 | 1.7 | 0.00 | 0.00 | 0.00 | 69 | 1016.2 |
| 20260507175330 | 64 | 36 | 1.7 | 1.7 | 0.00 | 0.00 | 0.00 | 69 | 1016.1 |
| 20260507174814 | 64 | 25 | 1.7 | 1.7 | 0.00 | 0.00 | 0.00 | 68 | 1016.2 |
| 20260507174412 | 64 | 36 | 1.7 | 1.7 | 0.00 | 0.00 | 0.00 | 67 | 1016.3 |
| 20260507060602 | 67 | 126 | 0.0 | 0.0 | 0.00 | 0.00 | 0.00 | 56 | 1016.1 |
| 20260507060049 | 66 | 116 | 1.7 | 1.7 | 0.00 | 0.00 | 0.00 | 59 | 1016.1 |
| 20260507055550 | 67 | 128 | 1.7 | 1.7 | 0.00 | 0.00 | 0.00 | 59 | 1016.1 |
| 20260507055049 | 67 | 126 | 1.7 | 1.7 | 0.00 | 0.00 | 0.00 | 60 | 1016.0 |
| 20260507054549 | 67 | 120 | 1.7 | 1.7 | 0.00 | 0.00 | 0.00 | 59 | 1015.9 |
| 20260507054049 | 69 | 120 | 1.7 | 1.7 | 0.00 | 0.00 | 0.00 | 57 | 1015.7 |
| 20260507053549 | 69 | 120 | 0.0 | 0.0 | 0.00 | 0.00 | 0.00 | 54 | 1015.7 |
| 20260507053036 | 69 | 120 | 0.0 | 0.0 | 0.00 | 0.00 | 0.00 | 54 | 1015.6 |
| 20260507052524 | 69 | 48 | 0.0 | 0.0 | 0.00 | 0.00 | 0.00 | 53 | 1015.6 |
| 20260507052025 | 68 | 48 | 1.7 | 1.7 | 0.00 | 0.00 | 0.00 | 53 | 1015.6 |
| 20260507051512 | 69 | 48 | 0.0 | 0.0 | 0.00 | 0.00 | 0.00 | 53 | 1015.4 |
| 20260507051011 | 68 | 48 | 1.7 | 1.7 | 0.00 | 0.00 | 0.00 | 53 | 1015.5 |
| 20260507050459 | 67 | 48 | 0.0 | 0.0 | 0.00 | 0.00 | 0.00 | 56 | 1015.5 |
| 20260507045959 | 66 | 44 | 1.7 | 1.7 | 0.00 | 0.00 | 0.00 | 58 | 1015.5 |
| 20260507045446 | 66 | 20 | 1.7 | 1.7 | 0.00 | 0.00 | 0.00 | 59 | 1015.4 |
| 20260507044934 | 65 | 20 | 0.0 | 0.0 | 0.00 | 0.00 | 0.00 | 61 | 1015.3 |
| 20260507044434 | 65 | 17 | 0.0 | 0.0 | 0.00 | 0.00 | 0.00 | 61 | 1015.3 |
| 20260507043921 | 64 | 17 | 0.0 | 0.0 | 0.00 | 0.00 | 0.00 | 62 | 1015.3 |
| 20260507043421 | 63 | 17 | 0.0 | 0.0 | 0.00 | 0.00 | 0.00 | 66 | 1015.3 |
| 20260507042909 | 62 | 17 | 0.0 | 0.0 | 0.00 | 0.00 | 0.00 | 63 | 1015.3 |
| 20260507042410 | 61 | 319 | 0.0 | 0.0 | 0.00 | 0.00 | 0.00 | 69 | 1015.4 |
| 20260507041857 | 60 | 319 | 1.7 | 1.7 | 0.00 | 0.00 | 0.00 | 71 | 1015.3 |
| 20260507041345 | 59 | 319 | 1.7 | 1.7 | 0.00 | 0.00 | 0.00 | 74 | 1015.3 |
| 20260507040844 | 59 | 324 | 1.7 | 1.7 | 0.00 | 0.00 | 0.00 | 75 | 1015.3 |
| 20260507040332 | 58 | 324 | 1.7 | 1.7 | 0.00 | 0.00 | 0.00 | 76 | 1015.4 |
| 20260507035831 | 58 | 330 | 1.7 | 1.7 | 0.00 | 0.00 | 0.00 | 78 | 1015.3 |
| 20260507035331 | 58 | 330 | 1.7 | 1.7 | 0.00 | 0.00 | 0.00 | 77 | 1015.4 |
| 20260507034831 | 57 | 318 | 1.7 | 1.7 | 0.00 | 0.00 | 0.00 | 76 | 1015.3 |
| 20260507034332 | 58 | 312 | 1.7 | 1.7 | 0.00 | 0.00 | 0.00 | 77 | 1015.2 |
| 20260507033831 | 57 | 306 | 3.5 | 3.5 | 0.00 | 0.00 | 0.00 | 76 | 1015.2 |
| 20260507033331 | 56 | 312 | 3.5 | 3.5 | 0.00 | 0.00 | 0.00 | 78 | 1015.1 |
| 20260507032818 | 56 | 330 | 1.7 | 1.7 | 0.00 | 0.00 | 0.00 | 80 | 1015.2 |
| 20260507032306 | 57 | 330 | 1.7 | 1.7 | 0.00 | 0.00 | 0.00 | 79 | 1015.1 |
| 20260507031754 | 57 | 330 | 1.7 | 1.7 | 0.00 | 0.00 | 0.00 | 77 | 1015.0 |
| 20260507031253 | 56 | 318 | 1.7 | 1.7 | 0.00 | 0.00 | 0.00 | 80 | 1015.0 |
| 20260507030741 | 57 | 318 | 1.7 | 1.7 | 0.00 | 0.00 | 0.00 | 78 | 1015.0 |
| 20260507030241 | 57 | 318 | 1.7 | 1.7 | 0.00 | 0.00 | 0.00 | 79 | 1014.9 |
| 20260507025728 | 57 | 318 | 2.6 | 2.6 | 0.00 | 0.00 | 0.00 | 78 | 1014.9 |
| 20260507025229 | 57 | 318 | 3.5 | 3.5 | 0.00 | 0.00 | 0.00 | 78 | 1014.9 |
| 20260507024717 | 57 | 312 | 2.6 | 2.6 | 0.00 | 0.00 | 0.00 | 78 | 1014.9 |
| 20260507024216 | 57 | 312 | 2.6 | 2.6 | 0.00 | 0.00 | 0.00 | 79 | 1014.8 |
| 20260507023703 | 57 | 318 | 1.7 | 1.7 | 0.00 | 0.00 | 0.00 | 78 | 1014.7 |
| 20260507023151 | 58 | 318 | 2.6 | 2.6 | 0.00 | 0.00 | 0.00 | 76 | 1014.7 |
| 20260507022651 | 58 | 312 | 1.7 | 1.7 | 0.00 | 0.00 | 0.00 | 77 | 1014.7 |
| 20260507022139 | 58 | 318 | 1.7 | 1.7 | 0.00 | 0.00 | 0.00 | 77 | 1014.7 |
| 20260507021639 | 58 | 312 | 3.5 | 3.5 | 0.00 | 0.00 | 0.00 | 77 | 1014.7 |
| 20260507021126 | 58 | 318 | 2.6 | 2.6 | 0.00 | 0.00 | 0.00 | 77 | 1014.7 |
| 20260507020626 | 57 | 312 | 2.6 | 2.6 | 0.00 | 0.00 | 0.00 | 76 | 1014.7 |
| 20260507020114 | 57 | 312 | 1.7 | 1.7 | 0.00 | 0.00 | 0.00 | 78 | 1014.6 |
| 20260507015615 | 57 | 318 | 1.7 | 1.7 | 0.00 | 0.00 | 0.00 | 76 | 1014.6 |
| 20260507015102 | 57 | 312 | 3.5 | 3.5 | 0.00 | 0.00 | 0.00 | 78 | 1014.5 |
| 20260507014550 | 57 | 312 | 1.7 | 1.7 | 0.00 | 0.00 | 0.00 | 76 | 1014.4 |
| 20260507014049 | 58 | 312 | 1.7 | 1.7 | 0.00 | 0.00 | 0.00 | 73 | 1014.5 |
| 20260507013538 | 58 | 306 | 2.6 | 2.6 | 0.00 | 0.00 | 0.00 | 75 | 1014.3 |